This demonstration page uses our WeatherBlox Daily Observations layout. Learn more.

Left ArrowRight Arrow

39.01783, -85.05884

Hourly Observations for November 23, 2020

Temp ( °F °C ) Dew Point ( °F °C ) Humidity (%) Winds ( mph kmh ) Pressure ( in mb ) Visibility ( mi km ) Precip ( " mm )
12:52 am 00:52 Cloudy 37 2.8 34 1.1 89 89 WSW 5 7 30.25 1024 10 16.0934 0 0
1:35 am 01:35 Cloudy 37 2.8 33 0.6 86 86 SW 6 9 30.29 1026 10 16.0934 0 0
1:52 am 01:52 Cloudy 37 2.8 34 1.1 89 89 SW 5 7 30.25 1024 10 16.0934 0 0
2:52 am 02:52 Mostly Cloudy 37 2.8 34 1.1 89 89 SW 7 11 30.25 1024 10 16.0934 0 0
3:52 am 03:52 Mostly Cloudy 37 2.8 34 1.1 89 89 WSW 5 7 30.26 1025 10 16.0934 0 0
4:23 am 04:23 Cloudy 37 2.8 35 1.7 93 93 SW 7 11 30.3 1026 10 16.0934 0 0
4:52 am 04:52 Mostly Cloudy 37 2.8 34 1.1 89 89 SW 7 11 30.27 1025 10 16.0934 0 0
5:17 am 05:17 Cloudy 38 3.3 35 1.7 89 89 SW 9 15 30.3 1026 10 16.0934 0 0
5:52 am 05:52 Mostly Cloudy 38 3.3 35 1.7 89 89 SW 7 11 30.28 1026 10 16.0934 0 0
6:45 am 06:45 Cloudy 39 3.9 35 1.7 86 86 WSW 8 13 30.31 1026 10 16.0934 0 0
6:52 am 06:52 Cloudy 39 3.9 36 2.2 89 89 SW 8 13 30.28 1026 10 16.0934 0 0
7:52 am 07:52 Cloudy 39 3.9 35 1.7 86 86 W 8 13 30.29 1026 8 12.87472 0 0
8:05 am 08:05 Cloudy 39 3.9 35 1.7 86 86 W 8 13 30.32 1027 8 12.87472 0 0
8:52 am 08:52 Cloudy 40 4.4 35 1.7 83 83 W 9 15 30.32 1027 9 14.48406 0 0
9:32 am 09:32 Cloudy 41 5 36 2.2 82 82 W 8 13 30.34 1027 10 16.0934 0 0
9:52 am 09:52 Cloudy 42 5.6 36 2.2 79 79 W 9 15 30.32 1027 10 16.0934 0 0
10:52 am 10:52 Mostly Cloudy 43 6.1 35 1.7 74 74 WNW 6 9 30.33 1027 10 16.0934 0 0
11:52 am 11:52 Mostly Cloudy 45 7.2 35 1.7 68 68 NW 3 6 30.33 1027 10 16.0934 0 0
12:22 pm 12:22 Partly Cloudy 47 8.3 35 1.7 63 63 NW 7 11 30.33 1027 10 16.0934 0 0
12:52 pm 12:52 Partly Cloudy 46 7.8 34 1.1 63 63 NW 6 9 30.31 1027 10 16.0934 0 0
1:52 pm 13:52 Partly Cloudy 49 9.4 35 1.7 59 59 NW 8 13 30.3 1026 10 16.0934 0 0
2:52 pm 14:52 Mostly Cloudy 47 8.3 32 0 56 56 N 7 11 30.29 1026 10 16.0934 0 0
3:52 pm 15:52 Partly Cloudy 49 9.4 30 -1.1 48 48 W 6 9 30.29 1026 10 16.0934 0 0
4:52 pm 16:52 Mostly Cloudy 45 7.2 30 -1.1 56 56 NNW 6 9 30.31 1026 10 16.0934 0 0
5:52 pm 17:52 Cloudy 43 6.1 31 -0.6 63 63 N 8 13 30.32 1027 10 16.0934 0 0
6:52 pm 18:52 Cloudy 42 5.6 33 0.6 71 71 N 7 11 30.34 1027 10 16.0934 0 0
7:52 pm 19:52 Cloudy 40 4.4 31 -0.6 70 70 NNE 5 7 30.33 1027 10 16.0934 0 0
8:52 pm 20:52 Cloudy 41 5 31 -0.6 67 67 NE 3 6 30.34 1027 10 16.0934 0 0
9:52 pm 21:52 Cloudy 41 5 31 -0.6 67 67 ENE 7 11 30.32 1027 10 16.0934 0 0
10:52 pm 22:52 Cloudy 40 4.4 32 0 73 73 ESE 5 7 30.32 1027 10 16.0934 0 0
11:52 pm 23:52 Cloudy 39 3.9 31 -0.6 73 73 E 5 7 30.32 1027 10 16.0934 0 0

Powered by AerisWeather